Погода в Солнечногорском

Россия / Республика Крым     44°44′53″N   34°32′24″E
В апреле 2022 года жителям России запретили посещать сайт meteo.paraplan.net по решению Генеральной прокуратуры. Аудитория сайта уменьшилась в 10 раз. Владельцы сайта не видят смысла в поддержке погодного сервера в таких условиях. Сайт будет закрыт в октябре.
темп.,
°C
ветер,
м/с
пор.,
м/с
влажн.,
%
обл.,
%
осадки,
мм/ч
давл.,
гПа
погр.,
м
5 октября, ср
ср500:00+12ссз43611 0.0 1022153
03:00+11ссз43613 0.0 1023165
06:00+11ссз43591 0.0 1024177
09:00+13с33525 0.0 1025469
12:00+16ссз12431 0.0 10251026
15:00+16ю234814 0.0 1025894
18:00+14з12563 0.0 1026368
21:00+12ссз43730 0.0 1028188
6 октября, чт
чт600:00+12ссз4369100 0.0 1028187
03:00+12ссз3366100 0.0 1028186
06:00+12ссз3363100 0.0 1028176
09:00+14с225242 0.0 1028332
12:00+15ююв214691 0.0 1027651
15:00+16юв1249100 0.0 1026670
18:00+14зсз125821 0.0 1026121
21:00+13с22600 0.0 1027187
7 октября, пт
пт700:00+13с22585 0.0 1027175
03:00+13с22555 0.0 1026167
06:00+13с43605 0.0 1026143
09:00+15с22510 0.0 1025233
12:00+17вюв23500 0.0 1024534
15:00+17ссв23495 0.0 1023497
18:00+16с34605 0.0 1023214
21:00+14с456050 0.0 1023152
8 октября, сб
сб800:00+14с46555 0.0 1022381
03:00+14с56685 0.0 1020320
06:00+14с57755 0.0 1019386
09:00+16ссв59657 0.0 1018646
12:00+18св585889 0.0 1017852
15:00+18всв6862100 0.0 1016671
18:00+16с5669100 0.0 1016439
21:00+15с5575100 0.0 1015169
9 октября, вс
вс900:00+16ссз4471100 0.0 1015163
03:00+15ссз447595 0.0 1014107
06:00+15ссз337620 0.1 101483
09:00+17ссв016534 0.1 1014200
12:00+18юв116889 0.1 1015448
15:00+17ссз347788 0.6 1015386
18:00+16ссз577995 0.1 1017587
21:00+15ссз4976100 0.6 1018715